Flag for Poland Weather past 2 weeks in Bielsko-Biała, Poland

Now
57 °F

Fog.


Feels Like: 57 °F
Forecast: 45 / 58 °F
Wind: 1 mph from Northeast

Location: Katowice

Current Time: Oct 2, 2014 at 12:40:42 PM

Latest Report: Oct 2, 2014 at 12:00 PM


Visibility: 3 mi

Pressure: 30.38 "Hg

Humidity: 89%

Dew point: 54 °F

Location of Bielsko-BiałaLocation

Historic Weather in Bielsko-Biała — Graph

°F

Bielsko-Biała temperature yesterday

Maximum temperature yesterday: 62 °F (at 4:00 PM)
Minimum temperature yesterday: 57 °F (at 6:00 AM)
Average temperature yesterday: 60 °F

Past Weeks' High & Low Weather Summary

 TemperatureHumidityPressure
High72 °F (Sep 19, 2:00 PM)99% (Sep 28, 9:00 AM)30.44 "Hg (Sep 28, 9:00 AM)
Low35 °F (Sep 24, 7:00 AM)43% (Sep 19, 2:00 PM)29.72 "Hg (Sep 22, 4:00 AM)
Average55 °F84%30.12 "Hg
* Reported Sep 17 11:00 AM — Oct 2 11:00 AM, Bielsko-Biała, Weather by CustomWeather, © 2014

Note: Actual official high and low records may vary slightly from our data, if they occured in-between our weather recording intervals... More about our weather records

Advertising

Bielsko-Biała weather history for previous 24 hours

 ConditionsComfort  
Time TempWeatherWind HumidityBarometerVisibility
11:00 AM
Oct 2
56 °FFog.1 mph90%30.38 "Hg3 mi
10:00 AM56 °FFog.1 mph93%30.38 "Hg2 mi
9:00 AM56 °FFog.2 mph93%30.37 "Hg3 mi
8:00 AM56 °FFog.2 mph95%30.35 "Hg2 mi
7:00 AM56 °FFog.1 mph95%30.34 "Hg2 mi
6:00 AM56 °FFog.1 mph96%30.33 "Hg2 mi
5:00 AM57 °FFog.1 mph96%30.32 "Hg2 mi
4:00 AM57 °FFog.1 mph96%30.32 "Hg2 mi
3:00 AM58 °FFog.1 mph96%30.32 "Hg2 mi
2:00 AM58 °FFog.1 mph96%30.31 "Hg2 mi
1:00 AM58 °FLow clouds.1 mph96%30.31 "Hg2 mi
12:00 AM59 °FSprinkles. Low clouds.No wind96%30.31 "Hg2 mi
11:00 PM
Oct 1
59 °FLight rain. Low clouds.1 mph96%30.31 "Hg2 mi
10:00 PM59 °FLight rain. Low clouds.1 mph93%30.31 "Hg2 mi
9:00 PM60 °FLow clouds.1 mph92%30.30 "Hg4 mi
8:00 PM60 °FLight rain. Overcast.1 mph90%30.30 "Hg4 mi
7:00 PM60 °FOvercast.1 mph86%30.29 "Hg5 mi
6:00 PM61 °FSprinkles. Overcast.1 mph86%30.28 "Hg5 mi
5:00 PM62 °FFog.2 mph86%30.27 "Hg5 mi
4:00 PM62 °FFog.1 mph85%30.27 "Hg5 mi
3:00 PM61 °FFog.1 mph90%30.28 "Hg4 mi
2:00 PM62 °FFog.2 mph88%30.29 "Hg4 mi
1:00 PM62 °FFog.1 mph87%30.29 "Hg4 mi
12:00 PM62 °FFog.1 mph90%30.29 "Hg2 mi
Weather by CustomWeather, © 2014

See weather overviewHow to use our weather pages